Regional Weather Roundup
Issued by NWS Cleveland, OH

Home | Current Version | Previous Version | Graphics & Text | Print | Product List | Glossary On
Versions: 1 2 3 4 5 6 7 8 9 10 11 12 13 14 15 16 17 18 19 20 21 22 23 24 25 26 27 28 29 30 31 32 33 34 35 36 37 38 39 40 41 42 43 44 45 46 47 48 49 50
000
ASUS41 KCLE 281010
RWRCLE
OHIO REGIONAL WEATHER ROUNDUP
NATIONAL WEATHER SERVICE WILMINGTON, OH
500 AM EST SUN DEC 28 2014

NOTE: "FAIR" INDICATES FEW OR NO CLOUDS BELOW 12,000 FEET WITH NO
SIGNIFICANT WEATHER AND/OR OBSTRUCTIONS TO VISIBILITY.

OHZ001>008-015>018-024>027-034-035-043-044-281100-
   NORTHWEST OHIO

CITY           SKY/WX    TMP DP  RH WIND       PRES   REMARKS
DEFIANCE       CLOUDY    35  30  82 CALM      30.06S
FINDLAY        CLOUDY    36  30  79 NW10      30.04R
TOLEDO EXPRESS CLOUDY    34  31  88 W6        30.03F WCI  29
TOLEDO METCALF CLOUDY    36  30  79 W7        30.04S
LIMA           CLOUDY    36  31  82 W9        30.05R
$$

OHZ009>014-019>023-028>033-038-089-281100-
   NORTHEAST OHIO

CITY           SKY/WX    TMP DP  RH WIND       PRES   REMARKS
CLE-HOPKINS    CLOUDY    36  33  89 W9        30.03S
CLE-LAKEFRONT  CLOUDY    37  34  89 W16       30.00F
CUY CO. ARPT   NOT AVBL
LORAIN-ELYRIA  CLOUDY    35  32  88 NW12      30.01F WCI  27
ASHTABULA      MIX PCPN  36  34  92 W8        29.99R
AKRON-CANTON   LGT SNOW  39  36  89 NW14      29.97F FOG
WOOSTER        LGT RAIN  36  34  92 NW14      30.01R FOG
MANSFIELD      CLOUDY    34  34 100 NW9       30.00S FOG     WCI  27
YOUNGSTOWN     LGT RAIN  37  35  92 NW12      29.96R FOG
$$

OHZ042-051>053-060>062-070>072-077>081-281100-
  SOUTHWEST OHIO

CITY           SKY/WX    TMP DP  RH WIND       PRES   REMARKS
CINC-COVINGTON CLOUDY    38  33  82 N9        30.07R HAZE
CINC-LUNKEN    CLOUDY    38  37  97 W8        30.10R
HAMILTON       CLOUDY    38  34  85 NW10      30.10R
DAYTON         CLOUDY    35  32  88 NW9       30.08R FOG     WCI  28
WRIGHT-PAT AFB LGT RAIN  36  35  95 NW8       30.07R FOG
DAYTON GENERAL CLOUDY    36  33  89 NW9       30.07R
WILMINGTON     CLOUDY    37  35  92 NW10      30.05R FOG
$$

OHZ036-037-039>041-045>050-054>059-063>069-073>076-082>088-281100-
  CENTRAL AND SOUTHEAST OHIO

CITY           SKY/WX    TMP DP  RH WIND       PRES   REMARKS
COLUMBUS       CLOUDY    38  37  97 N7        30.02S FOG
OSU AIRPORT    CLOUDY    37  34  89 NW14      30.03R
BOLTON FIELD   CLOUDY    37  35  91 MISG      30.04S
RICKENBACK AFB CLOUDY    38  36  91 NW9       30.03R
NEWARK         CLOUDY    40  38  93 NW3       30.01R FOG
MARION         CLOUDY    35  33  92 NW9       30.03R FOG     WCI  28
LANCASTER      CLOUDY    40  38  93 NW10      30.03R FOG
ZANESVILLE     RAIN      42  40  92 NW14G28   29.99R FOG
NEW PHILLY     CLOUDY    42  39  89 W7        29.99R
$$



USA.gov is the U.S. government's official web portal to all federal, state and local government web resources and services.